Location: Alphen
(52.1351°N, 4.6549°E)
Time: 00:53:32
(UTC+00:00)

Cosmos 2237 Rocket - Pass Details

Date: 27 January 2021
Orbit: 833 x 851 km, 71.0° (Epoch: 27 February)

Event Time Altitude Azimuth Distance (km) Brightness Sun altitude
Exits shadow 05:24:39 30° 251° (WSW) 1,467 2.9 -18.9°
Maximum altitude 05:27:08 50° 309° (NW) 1,074 2.4 -18.5°
Drops below altitude 10° 05:32:41 10° 25° (NNE) 2,489 4.8 -17.7°
Sets 05:35:15 0° 30° (NNE) 3,430 5.7 -17.3°
